Weather History for KICT - April, 2012

Change the Weather History Date:

Thursday, April 5, 2012

  Actual Average Record
Temperature  
Mean Temperature 55 °F 53 °F  
Max Temperature 58 °F 64 °F 89 °F (1893)
Min Temperature 51 °F 41 °F 21 °F (1920)
Degree Days  
Heating Degree Days 10 13  
Month to date heating degree days 17 67  
Since 1 July heating degree days 3490 4284  
Cooling Degree Days 0 0  
Month to date cooling degree days 17 0  
Year to date cooling degree days 57 2  
Growing Degree Days 6 (Base 50)    
Moisture  
Dew Point 53 °F    
Average Humidity 87    
Maximum Humidity 93    
Minimum Humidity 80    
Precipitation  
Precipitation T in 0.07 in 2.45 in (1928)
Month to date precipitation 1.24 0.38  
Year to date precipitation 8.87 5.08  
Snow  
Snow 0.00 in 0.00 in 0.60 in (1901)
Month to date snowfall 0.0 0.1  
Since 1 July snowfall 3.0 14.8  
Snow Depth 0.00 in    
Sea Level Pressure  
Sea Level Pressure 29.90 in    
Wind  
Wind Speed 9 mph (North)    
Max Wind Speed 14 mph    
Max Gust Speed 17 mph    
Visibility 7 miles    
Events Fog    
T = Trace of Precipitation, MM = Missing Value Source: NWS Daily Summary

Daily Weather History Graph

Daily Weather History Graph

Search for Another Location

Airport or City:

Trip Planner

Search our weather history database for the weather conditions in past years. The results will help you decide how hot, cold, wet, or windy it might be!

Date:

Astronomy

Apr. 05, 2012 Rise Set
Actual Time 7:08 AM CDT 7:56 PM CDT
Civil Twilight 6:41 AM CDT 8:23 PM CDT
Nautical Twilight 6:10 AM CDT 8:54 PM CDT
Astronomical Twilight 5:38 AM CDT 9:27 PM CDT
Moon 7:04 PM CDT (4/5) 6:04 AM CDT (4/5)
Length of Visible Light 13h 41m
Length of Day
12h 48m
Waxing Gibbous, 98% of the Moon is Illuminated
Apr 5
Waxing Gibbous
Apr 6
Full
Apr 13
Last Quarter
Apr 21
New
Apr 29
First Quarter

Hourly Weather History & Observations

Time (CDT) Temp. Dew Point Humidity Pressure Visibility Wind Dir Wind Speed Gust Speed Precip Events Conditions
12:53 AM 55.0 °F 54.0 °F 96% 29.77 in 10.0 mi NW 15.0 mph - 0.00 in   Overcast
1:53 AM 55.9 °F 54.0 °F 93% 29.77 in 9.0 mi NW 12.7 mph - 0.00 in   Light Drizzle
2:53 AM 55.0 °F 54.0 °F 96% 29.77 in 10.0 mi NNW 13.8 mph - 0.00 in   Overcast
3:53 AM 55.0 °F 53.1 °F 93% 29.76 in 7.0 mi North 10.4 mph - N/A   Overcast
4:53 AM 55.0 °F 53.1 °F 93% 29.76 in 6.0 mi North 9.2 mph - N/A   Overcast
5:53 AM 55.0 °F 53.1 °F 93% 29.79 in 6.0 mi NNW 10.4 mph - N/A   Overcast
6:27 AM 55.4 °F 53.6 °F 94% 29.81 in 6.0 mi NW 10.4 mph - N/A   Overcast
6:53 AM 55.0 °F 53.1 °F 93% 29.81 in 6.0 mi NNW 10.4 mph - 0.00 in   Light Drizzle
7:18 AM 55.4 °F 53.6 °F 94% 29.83 in 7.0 mi NNW 9.2 mph - 0.00 in   Overcast
7:38 AM 55.4 °F 53.6 °F 94% 29.84 in 6.0 mi NNW 9.2 mph - 0.00 in   Overcast
7:53 AM 55.9 °F 54.0 °F 93% 29.83 in 5.0 mi NNW 8.1 mph - 0.00 in   Overcast
8:27 AM 55.4 °F 53.6 °F 94% 29.85 in 6.0 mi North 10.4 mph - N/A   Overcast
8:53 AM 55.9 °F 54.0 °F 93% 29.85 in 6.0 mi North 9.2 mph - N/A   Overcast
9:28 AM 57.2 °F 53.6 °F 88% 29.87 in 7.0 mi North 10.4 mph - N/A   Overcast
9:53 AM 57.0 °F 54.0 °F 89% 29.86 in 8.0 mi NNW 10.4 mph - N/A   Overcast
10:53 AM 55.9 °F 54.0 °F 93% 29.90 in 4.0 mi NNW 9.2 mph - N/A   Overcast
11:08 AM 55.4 °F 53.6 °F 94% 29.91 in 5.0 mi NNW 8.1 mph - N/A   Overcast
11:53 AM 55.9 °F 54.0 °F 93% 29.92 in 5.0 mi NNW 9.2 mph - N/A   Overcast
11:58 AM 57.2 °F 53.6 °F 88% 29.93 in 8.0 mi NNW 11.5 mph - N/A   Overcast
12:39 PM 57.2 °F 53.6 °F 88% 29.93 in 9.0 mi North 11.5 mph - N/A   Overcast
12:53 PM 57.0 °F 52.0 °F 83% 29.92 in 10.0 mi North 10.4 mph - N/A   Overcast
1:12 PM 57.2 °F 53.6 °F 88% 29.93 in 0.0 mi North 10.4 mph - N/A Fog Fog
1:19 PM 55.4 °F 51.8 °F 88% 29.93 in 10.0 mi NNW 10.4 mph - N/A   Overcast
1:27 PM 55.4 °F 51.8 °F 88% 29.93 in 10.0 mi NW 10.4 mph - N/A   Overcast
1:53 PM 57.0 °F 52.0 °F 83% 29.93 in 10.0 mi North 9.2 mph - N/A   Overcast
2:32 PM 55.4 °F 53.6 °F 94% 29.94 in 2.5 mi North 10.4 mph - 0.00 in   Light Drizzle
2:44 PM 55.4 °F 53.6 °F 94% 29.94 in 4.0 mi NNW 8.1 mph - 0.00 in   Light Drizzle
2:53 PM 55.9 °F 54.0 °F 93% 29.94 in 6.0 mi North 9.2 mph - 0.00 in   Overcast
3:53 PM 55.9 °F 54.0 °F 93% 29.94 in 6.0 mi NNE 6.9 mph - 0.00 in   Light Drizzle
4:05 PM 55.4 °F 53.6 °F 94% 29.94 in 3.0 mi NNE 10.4 mph - 0.00 in   Light Drizzle
4:36 PM 55.4 °F 53.6 °F 94% 29.95 in 7.0 mi NNE 10.4 mph - 0.00 in   Overcast
4:53 PM 55.9 °F 54.0 °F 93% 29.94 in 5.0 mi NE 8.1 mph - 0.00 in   Overcast
5:25 PM 57.2 °F 53.6 °F 88% 29.94 in 7.0 mi ENE 6.9 mph - N/A   Overcast
5:53 PM 57.0 °F 52.0 °F 83% 29.94 in 8.0 mi NE 5.8 mph - N/A   Overcast
6:53 PM 57.0 °F 53.1 °F 87% 29.95 in 8.0 mi North 6.9 mph - N/A   Overcast
7:53 PM 57.0 °F 52.0 °F 83% 29.96 in 8.0 mi NE 9.2 mph - N/A   Overcast
8:40 PM 55.4 °F 51.8 °F 88% 30.00 in 10.0 mi NE 10.4 mph - N/A   Overcast
8:53 PM 55.0 °F 51.1 °F 86% 30.00 in 10.0 mi NE 9.2 mph - N/A   Mostly Cloudy
9:30 PM 55.4 °F 50.0 °F 82% 30.02 in 10.0 mi NE 9.2 mph - N/A   Overcast
9:53 PM 55.0 °F 50.0 °F 83% 30.02 in 10.0 mi NE 8.1 mph - N/A   Overcast
10:53 PM 54.0 °F 50.0 °F 86% 30.02 in 9.0 mi NE 8.1 mph - N/A   Mostly Cloudy
11:53 PM 51.1 °F 48.9 °F 92% 30.02 in 8.0 mi NE 5.8 mph - N/A   Partly Cloudy